www.pogodaiklimat.ru
ПОГОДА в Тузле

Архив погоды в Тузле (Босния и Герцеговина)

Время
(UTC), дата
22 27.06
23 27.06
00 28.06
01 28.06
02 28.06
03 28.06
04 28.06
05 28.06
06 28.06
07 28.06
08 28.06
09 28.06
10 28.06
11 28.06
12 28.06
13 28.06
14 28.06
15 28.06
16 28.06
17 28.06
18 28.06
19 28.06
20 28.06
21 28.06
22 28.06
23 28.06
00 29.06
01 29.06
02 29.06
03 29.06
04 29.06
05 29.06
06 29.06
07 29.06
08 29.06
09 29.06
10 29.06
11 29.06
12 29.06
13 29.06
14 29.06
15 29.06
16 29.06
17 29.06
18 29.06
19 29.06
20 29.06
21 29.06
22 29.06
23 29.06
00 30.06
01 30.06
02 30.06
03 30.06
04 30.06
05 30.06
06 30.06
07 30.06
08 30.06
09 30.06
10 30.06
11 30.06
12 30.06
13 30.06
14 30.06
15 30.06
16 30.06
17 30.06
18 30.06
19 30.06
20 30.06
21 30.06
22 30.06
23 30.06
00 1.07
01 1.07
02 1.07
03 1.07
04 1.07
05 1.07
06 1.07
07 1.07
08 1.07
09 1.07
10 1.07
11 1.07
12 1.07
13 1.07
14 1.07
15 1.07
16 1.07
17 1.07
18 1.07
19 1.07
20 1.07
21 1.07
22 1.07
23 1.07
00 2.07
01 2.07
02 2.07
03 2.07
04 2.07
05 2.07
06 2.07
07 2.07
08 2.07
09 2.07
10 2.07
11 2.07
12 2.07
13 2.07
14 2.07
15 2.07
16 2.07
17 2.07
18 2.07
19 2.07
20 2.07
21 2.07
22 2.07
23 2.07
00 3.07
01 3.07
02 3.07
03 3.07
04 3.07
05 3.07
06 3.07
07 3.07
08 3.07
09 3.07
10 3.07
11 3.07
12 3.07
13 3.07
14 3.07
15 3.07
16 3.07
17 3.07
18 3.07
19 3.07
20 3.07
21 3.07
22 3.07
23 3.07
00 4.07
01 4.07
02 4.07
03 4.07
04 4.07
05 4.07
06 4.07
07 4.07
08 4.07
09 4.07
10 4.07
11 4.07
12 4.07
13 4.07
14 4.07
15 4.07
16 4.07
17 4.07
18 4.07
19 4.07
20 4.07
21 4.07
Ветер
(напр.,м/с)
Видим. Явления Облачность Т
(С)
Тd
(С)
f
(%)
Тe
(С)
Тes
(С)
Комфортность P
(гПа)
Po
(гПа)
Тmin
(С)
Tmax
(С)
R
(мм)
R24
(мм)
S
(см)
СВ 2 н/о н/о +20.2 +17.8 86 +24 +24 комфорт 1017.8 982.5
штиль 0 50 км ?/?
СВ 2 н/о н/о +18.8 +17.1 90 +21 +21 комфорт 1017.4 982.0
С 1 н/о н/о +18.2 +17.2 94 +20 +20 1017.4 981.9
СВ 1 н/о н/о +17.7 +17.0 96 +19 +19 1017.4 981.8
СВ 2 н/о н/о +17.2 +16.8 97 +18 +18 1017.2 981.6
СВ 1 н/о н/о +17.7 +17.2 97 +19 +19 1017.5 981.9
штиль 0 н/о н/о +19.7 +18.1 90 +22 +22 комфорт 1017.6 982.3
З 1 20 км 1/0
[Ci sp]
+23.0 +16.8 68 +28 +34 душно 1016.8 982.0 +17.7 +33.0
З 1 20 км 1/0
[Ci sp]
+25.4 +17.1 60 +29 +40 душно 1017.0 982.4
З 1 20 км 1/0
[Ci sp]
+27.6 +17.6 54 +32 +47 очень
душно
1017.1 982.8
В 2 20 км 1/0
[Ci sp]
+30.4 +14.2 37 +32 +48 жарко 1017.4 983.4
В 2 20 км 3/0
[Ac trans Ci sp]
+30.9 +14.6 37 +33 +50 душно 1017.4 983.4
В 2 20 км 4/0
[Ac trans Ci]
+31.5 +14.9 37 +34 +51 опасность
солнечного
удара
1016.7 982.9
ЮВ 1 20 км 5/0
[Ac trans Ci]
+32.2 +15.4 36 +34 +51 опасность
солнечного
удара
1016.6 982.9
В 2 20 км 3/0
[Ac trans Ci sp]
+32.6 +16.2 37 +35 +49 душно 1016.3 982.6
СВ 1 20 км 4/1 1000 м
[Cu hum Ac trans Ci sp]
+32.1 +16.3 39 +35 +45 очень
душно
1015.7 982.0
СВ 1 20 км 4/1 1000 м
[Cu hum Ac trans Ci sp]
+33.0 +15.4 35 +35 +42 душно 1015.3 981.6
В 2 н/о н/о +32.0 +16.4 39 +35 +35 очень
душно
1015.7 981.8
В 1 н/о н/о +30.9 +16.2 41 +34 +34 душно 1015.5 981.5
В 1 н/о н/о +28.7 +15.9 46 +32 +32 душно 1016.4 982.1 +33.1
СВ 2 н/о н/о +24.9 +17.6 64 +29 +29 душно 1017.3 982.6
штиль 0 10 км ясно +23.2 +16.6 66 +28 +28 душно 1016.6 981.8
СВ 1 н/о н/о +21.0 +16.7 76 +26 +26 душно 1018.1 982.9
С 2 н/о н/о +20.9 +15.9 73 +25 +25 комфорт 1017.9 982.7
штиль 0 50 км ?/?
СВ 1 н/о н/о +18.3 +15.7 85 +20 +20 1016.9 981.4
СВ 1 н/о н/о +17.8 +15.5 86 +19 +19 1016.7 981.1
С 3 н/о н/о +17.5 +15.4 87 +17 +17 1016.3 980.7
СВ 2 н/о н/о +16.8 +15.4 91 +17 +17 1015.9 980.2
штиль 0 н/о н/о +18.0 +15.8 87 +18 +18 1015.4 979.9
штиль 0 н/о н/о +20.8 +16.6 77 +24 +24 комфорт 1015.0 979.9
штиль 0 20 км 1/0
[Ac trans]
+24.8 +16.7 61 +28 +35 жарко 1014.0 979.6 +17.0 +33.1
В 1 20 км 1/0
[Ac trans]
+28.1 +15.6 47 +31 +41 душно 1013.2 979.1
В 1 20 км 1/0
[Ac trans]
+30.0 +15.4 41 +33 +47 душно 1012.7 978.9
В 2 20 км ясно +30.2 +15.3 40 +33 +49 душно 1012.4 978.6
В 2 20 км ясно +32.3 +14.6 34 +34 +53 опасность
солнечного
удара
1011.9 978.3
В 2 20 км ясно +34.0 +15.0 32 +36 +55 опасность
солнечного
удара
1010.9 977.5
В 2 20 км 1/0
[Ac trans]
+34.6 +15.2 31 +36 +53 опасность
солнечного
удара
1010.6 977.3
В 2 20 км 1/1 1000 м
[Cu hum Ac trans]
+35.1 +14.5 29 +36 +50 очень
жарко
1009.6 976.3
СВ 2 20 км 1/1 800 м
[Cu med, cong]
+35.0 +16.5 33 +38 +48 очень
душно
1009.4 976.1
СВ 2 20 км 3/1 800 м
[Cu med, cong Ci sp]
+34.0 +16.9 36 +37 +43 очень
душно
1009.3 975.9
В 1 н/о н/о +31.3 +19.0 48 +37 +37 очень
душно
1009.3 975.6
СВ 1 н/о н/о +29.6 +19.1 53 +35 +35 очень
душно
1009.3 975.4
В 1 н/о н/о +28.4 +19.5 59 +34 +34 очень
душно
1008.9 974.9 +35.0
СВ 1 н/о н/о +26.2 +19.9 68 +32 +32 очень
душно
1010.2 975.9
СВ 1 10 км ясно +25.2 +18.7 67 +30 +30 душно 1010.1 975.8
СЗ 1 н/о н/о +23.3 +20.4 84 +31 +31 очень
душно
1011.2 976.6
С 2 н/о н/о +21.5 +19.3 87 +26 +26 душно 1011.7 976.8
штиль 0 50 км ?/?
СВ 2 н/о н/о +20.1 +18.8 92 +24 +24 комфорт 1012.2 977.1
В 1 н/о н/о +19.3 +18.5 95 +23 +23 комфорт 1012.2 977.0
С 1 н/о н/о +19.1 +18.3 95 +22 +22 комфорт 1012.7 977.5
С 2 н/о н/о +18.3 +18.0 98 +19 +19 1013.0 977.7
СВ 2 н/о н/о +18.2 +17.9 98 +19 +19 1013.5 978.1
СВ 1 н/о н/о +20.0 +18.6 92 +24 +24 комфорт 1013.5 978.4
Ю 1 20 км 1/0
[Ac trans]
+22.1 +18.3 79 +27 +33 душно 1012.9 978.2 +18.3 +35.5
З 1 20 км 1/0
[Ac trans]
+26.5 +16.5 54 +30 +40 душно 1013.3 979.1
ЮЗ 1 20 км ясно +28.5 +16.8 49 +32 +48 душно 1012.9 978.9
ЮЗ 1 20 км 1/1 1000 м
[Cu hum]
+30.2 +15.6 41 +33 +50 душно 1012.4 978.6
З 2 20 км 1/1 1000 м
[Cu hum]
+31.6 +14.4 35 +33 +50 жарко 1012.9 979.2
Ю 1 20 км 1/1 1000 м
[Cu hum]
+33.0 +13.9 32 +34 +55 опасность
солнечного
удара
1011.7 978.1
ЮЗ 1 20 км 3/1 1000 м
[Cu hum Ac trans]
+33.6 +13.5 30 +35 +51 опасность
солнечного
удара
1011.2 977.7
Ю 2 20 км 4/3 1000 м
[Cu med, cong Ac trans]
+34.0 +13.9 30 +35 +45 очень
жарко
1011.0 977.6
С 1 20 км 5/4 1000 м
[Cu med, cong Ac trans]
+34.2 +16.2 34 +37 +44 очень
душно
1010.7 977.3
В 1 20 км 6/5 1000 м
[Cu med, cong Ac trans]
+33.6 +16.7 36 +36 +40 очень
душно
1010.7 977.3
В 1 н/о н/о +32.4 +18.6 44 +37 +37 очень
душно
1011.1 977.4
В 1 н/о н/о +31.5 +18.2 45 +36 +36 очень
душно
1011.8 978.0
В 2 н/о н/о +29.3 +17.7 50 +34 +34 очень
душно
1012.6 978.5 +34.4
В 1 н/о н/о +26.1 +15.8 53 +29 +29 жарко 1013.3 978.8
В 1 10 км зарница 4/0
[Ac trans]
+25.4 +14.4 51 +28 +28 жарко 1012.5 978.1
СВ 2 н/о н/о +22.1 +16.1 69 +26 +26 душно 1014.3 979.3
СВ 2 н/о н/о +21.2 +16.1 73 +25 +25 комфорт 1014.4 979.3
штиль 0 50 км ?/?
СВ 2 н/о н/о +18.8 +15.9 83 +20 +20 1015.1 979.7
С 1 н/о н/о +18.1 +15.8 86 +19 +19 1015.3 979.8
СВ 2 н/о н/о +17.6 +15.5 87 +18 +18 1015.2 979.7
СВ 1 н/о н/о +17.5 +15.7 89 +19 +19 1015.2 979.7
С 2 н/о н/о +17.5 +15.6 89 +18 +18 1015.5 979.9
штиль 0 н/о н/о +19.5 +16.4 82 +21 +21 комфорт 1015.7 980.4
штиль 0 20 км ясно +23.2 +15.9 64 +28 +35 душно 1015.4 980.7 +17.8 +34.5
ЮЗ 1 20 км ясно +25.6 +16.6 58 +29 +40 душно 1015.2 980.8
З 1 20 км 1/1 1000 м
[Cu hum]
+27.9 +15.9 48 +31 +45 душно 1014.9 980.7
З 2 20 км 1/1 1000 м
[Cu hum]
+30.4 +17.9 47 +35 +50 очень
душно
1014.5 980.7
З 2 20 км 1/1 1000 м
[Cu hum]
+31.2 +17.7 45 +35 +52 опасность
солнечного
удара
1014.5 980.7
З 3 20 км 1/1 1000 м
[Cu hum]
+33.0 +17.3 39 +37 +51 опасность
солнечного
удара
1014.0 980.4
СЗ 1 20 км 1/1 1000 м
[Cu hum]
+33.6 +15.2 33 +35 +54 опасность
солнечного
удара
1013.4 979.9
З 2 20 км 1/1 1000 м
[Cu hum]
+34.5 +15.7 33 +37 +50 очень
душно
1012.6 979.2
Ю 1 20 км 1/1 1000 м
[Cu hum]
+35.3 +15.4 31 +37 +49 очень
душно
1012.0 978.7
СВ 1 20 км 1/1 1000 м
[Cu hum]
+35.0 +16.2 33 +38 +45 очень
душно
1011.9 978.6
В 1 н/о н/о +34.2 +19.5 42 +40 +40 очень
душно
1012.0 978.5
СВ 1 н/о н/о +32.6 +20.9 50 +40 +40 очень
душно
1012.0 978.4
СВ 1 н/о н/о +30.3 +20.9 57 +38 +38 очень
душно
1012.6 978.7 +34.9
СВ 1 н/о н/о +27.3 +21.1 69 +34 +34 очень
душно
1013.5 979.2
СВ 2 10 км ясно +25.5 +19.9 71 +31 +31 очень
душно
1013.8 979.5
С 3 н/о н/о +23.2 +20.1 83 +30 +30 очень
душно
1015.1 980.3
С 3 н/о н/о +22.1 +19.6 86 +28 +28 душно 1015.3 980.4
штиль 0 50 км ?/?
СЗ 1 н/о н/о +21.2 +18.8 86 +26 +26 душно 1016.2 981.1
1 н/о н/о +21.1 +18.5 85 +25 +25 комфорт 1017.1 982.0
З 1 н/о н/о +23.0 +16.8 68 +28 +28 душно 1018.5 983.5
З 1 н/о н/о +21.7 +16.5 72 +26 +26 душно 1020.1 984.9
В 1 н/о н/о +18.9 +17.3 90 +21 +21 комфорт 1020.3 984.8
С 2 н/о н/о +18.5 +17.8 96 +20 +20 1021.0 985.4
штиль 0 20 км {дождь} 8/0
[Ac As]
+19.5 +17.1 86 +21 +25 комфорт 1020.0 984.7 +18.6 +35.5 0.2 0.2
1 20 км 5/0
[Ac trans]
+21.7 +17.4 77 +26 +33 душно 1020.8 985.7
СВ 1 20 км 4/1 1000 м
[Cu hum Ac trans]
+23.7 +15.4 60 +27 +38 жарко 1021.2 986.3
СВ 1 20 км 6/3 800 м
[Cu hum Ac trans]
+25.6 +16.3 56 +29 +39 душно 1020.9 986.3
З 3 20 км 6/3 800 м
[Cu hum Ac trans]
+25.4 +16.4 57 +29 +37 душно 1020.8 986.2
З 2 20 км 6/3 800 м
[Cu hum Ac trans]
+25.8 +15.3 52 +29 +39 душно 1020.6 986.0
З 2 20 км 4/1 800 м
[Cu hum Ac trans]
+27.3 +16.6 52 +31 +44 душно 1020.0 985.6
1 20 км 5/1 800 м
[Cu hum Ci]
+27.9 +16.6 50 +31 +46 душно 1019.5 985.2
СВ 1 20 км 4/1 800 м
[Cu hum Ci]
+27.8 +17.5 53 +32 +43 душно 1019.4 985.1
СВ 1 20 км 4/1 800 м
[Cu hum Ci]
+28.4 +17.5 52 +33 +40 очень
душно
1019.2 984.9
С 1 н/о н/о +27.7 +18.4 57 +33 +33 очень
душно
1020.4 985.9
СЗ 1 н/о н/о +27.0 +17.8 57 +31 +31 душно 1020.5 985.9
штиль 0 н/о н/о +25.0 +17.8 64 +29 +29 душно 1020.7 985.9 +29.9
СВ 2 н/о н/о +22.1 +18.2 79 +27 +27 душно 1021.1 985.9
С 2 10 км 3/0
[Ac trans]
+21.5 +17.5 78 +26 +26 душно 1020.1 985.1
СВ 2 н/о н/о +19.5 +18.0 91 +22 +22 комфорт 1021.8 986.3
СВ 2 н/о н/о +18.6 +17.5 93 +20 +20 1021.8 986.2
штиль 0 50 км ?/?
СВ 2 н/о н/о +17.3 +17.1 99 +18 +18 1021.3 985.5
штиль 0 50 км ?/?
СВ 2 н/о н/о +16.3 +16.3 100 +16 +16 1020.5 984.6
С 1 н/о н/о +15.9 +15.9 100 +17 +17 1020.7 984.8
С 2 н/о н/о +16.1 +16.1 100 +16 +16 1021.2 985.3
В 1 н/о н/о +18.0 +17.3 96 +19 +19 1020.8 985.1
штиль 0 20 км 1/0
[Ac trans]
+21.3 +16.9 76 +25 +32 комфорт 1019.9 984.8 +16.1 +28.6
З 1 20 км ясно +24.0 +17.0 65 +28 +38 душно 1019.1 984.4
ЮЗ 1 20 км ясно +26.1 +17.5 59 +30 +46 душно 1018.9 984.4
ЮЗ 1 20 км 1/0
[Ac trans]
+28.0 +17.6 53 +32 +50 душно 1018.5 984.2
С 1 20 км 1/1 1000 м
[Cu hum]
+29.5 +17.8 49 +34 +53 опасность
солнечного
удара
1018.0 984.0
В 2 20 км 1/1 1000 м
[Cu hum]
+31.0 +16.9 43 +35 +52 опасность
солнечного
удара
1017.5 983.6
В 1 20 км 1/1 1000 м
[Cu hum]
+31.0 +17.0 43 +35 +53 опасность
солнечного
удара
1016.9 983.0
В 1 20 км 1/1 1000 м
[Cu hum]
+32.0 +18.0 43 +36 +52 опасность
солнечного
удара
1016.5 982.7
ЮВ 1 20 км 1/1 1000 м
[Cu hum Ci sp]
+32.0 +18.7 45 +37 +49 очень
душно
1016.1 982.4
СВ 1 20 км 1/1 1000 м
[Cu hum Ci sp]
+31.7 +19.0 47 +37 +44 очень
душно
1015.9 982.1
В 1 н/о н/о +30.6 +20.1 54 +37 +37 очень
душно
1016.2 982.2
СВ 1 н/о н/о +29.8 +20.3 57 +37 +37 очень
душно
1016.4 982.3
штиль 0 н/о н/о +27.7 +20.3 64 +34 +34 очень
душно
1016.8 982.5 +31.7
штиль 0 н/о н/о +25.7 +20.3 72 +32 +32 очень
душно
1017.4 982.8
СВ 1 10 км 10/0
[Ac As]
+25.4 +19.5 70 +31 +31 очень
душно
1017.2 982.7
штиль 0 н/о н/о +25.4 +20.7 75 +32 +32 очень
душно
1017.9 983.3
С 1 н/о н/о +24.6 +20.5 78 +31 +31 очень
душно
1018.1 983.4
штиль 0 50 км ?/?
СВ 1 н/о н/о +22.6 +20.1 86 +29 +29 очень
душно
1018.1 983.1
штиль 0 н/о н/о +21.9 +20.0 89 +28 +28 душно 1018.0 983.0
СВ 1 н/о н/о +21.2 +19.7 91 +26 +26 душно 1018.1 983.0
СВ 1 н/о н/о +20.4 +19.2 93 +25 +25 комфорт 1018.6 983.3
СВ 2 н/о н/о +20.4 +19.1 92 +25 +25 комфорт 1018.7 983.4
СВ 1 н/о н/о +22.0 +19.7 87 +28 +28 душно 1018.7 983.6
СВ 1 20 км 5/1 1000 м
[Cu hum Ac trans]
+23.2 +18.7 76 +29 +33 душно 1017.4 982.7 +20.6 +32.0
штиль 0 20 км 4/1 1000 м
[Cu hum Ac trans]
+26.0 +19.4 67 +31 +40 очень
душно
1017.3 982.9
З 1 20 км 3/1 1000 м
[Cu hum Ac trans]
+27.7 +18.7 58 +33 +45 очень
душно
1017.1 982.9
ЮВ 2 20 км 3/1 1000 м
[Cu hum Ac trans]
+29.9 +17.6 48 +34 +47 очень
душно
1016.8 982.8
ЮВ 2 20 км 3/1 1000 м
[Cu hum Ac trans]
+31.2 +16.6 42 +35 +49 очень
душно
1016.3 982.4
В 2 20 км 3/1 1000 м
[Cu med, cong Ac trans]
+32.0 +17.2 41 +36 +50 очень
душно
1015.5 981.8
СВ 2 20 км 3/1 1000 м
[Cu med, cong Ac trans]
+32.6 +17.3 40 +36 +50 очень
душно
1015.0 981.3
СВ 1 20 км 4/3 1000 м
[Cu med, cong Ac trans]
+32.7 +17.8 41 +37 +48 очень
душно
1014.8 981.2
В 2 20 км 3/1 1000 м
[Cu med, cong Ac trans]
+33.3 +17.5 39 +37 +46 очень
душно
1014.2 980.7
СВ 2 20 км 3/1 1000 м
[Cu med, cong Ac trans Ci sp]
+32.7 +17.0 39 +36 +42 очень
душно
1014.0 980.4
В 1 н/о н/о +31.5 +17.9 44 +36 +36 очень
душно
1014.8 980.9
СВ 1 н/о н/о +29.8 +18.7 51 +35 +35 очень
душно
1015.2 981.1
С 2 н/о н/о +26.9 +19.8 65 +33 +33 очень
душно
1015.6 981.2 +33.0
СВ 1 н/о н/о +24.3 +19.6 75 +30 +30 очень
душно
1015.8 981.1
СВ 3 10 км 3/0
[Ac trans]
+23.8 +17.9 70 +28 +28 душно 1015.3 980.7
СВ 2 н/о н/о +21.7 +17.4 77 +26 +26 душно 1016.7 981.6
Местоположение метеостанции Тузла (Босния и Герцеговина): широта 44.55 долгота 18.70 высота над уровнем моря 307 м.
В архиве по умолчанию представлена погода в Тузле за последнюю неделю. Архивные данные за месяц целиком и за предыдущие месяцы, начиная с января 2011 года, Вы можете получить, выбрав интересующий диапазон дат из раскрывающегося списка и нажав кнопку "Найти!".
*Определитесь, кто Вы:
Внимание! Время в таблицах - всемирное. Для получения местного времени необходимо прибавить поправку, которая равна 1 ч.
Смотрите также архив погоды в соседних городах и на ближайших метеорологических станциях:
Партнеры нашего сайта:      
Пояснения к столбцам:
  • Ветер - указаны скорость ветра в м/с - средняя за 10 мин, порывы в срок и между сроками (в фигурных скобках) и направление, откуда дует ветер: С - северный,
  • СВ - северо-восточный, В - восточный, ЮВ - юго-восточный, Ю - южный, ЮЗ - юго-западный, З - западный, СЗ - северо-западный.
  • Видимость - горизонтальная дальность видимости в метрах или километрах. При видимости от 1 до 10 км при отсутствии осадков обычно наблюдается дымка, при ухудшении видимости до 1 км и менее - туман. В сухую погоду видимость может ухудшаться дымом, пылью или мглою.
  • Явления - указаны атмосферные явления, наблюдавшиеся в срок или в последний час перед сроком; фигурными скобками обозначены явления, наблюдавшиеся между сроками (за 1-3 часа до срока); квадратными скобками обозначены град или гололедные отложения с указанием их диаметра в мм.
  • Облачность - указаны через наклонную черту общая и нижняя облачность в баллах и высота нижней границы облаков в метрах; квадратными скобками обозначены формы облаков: Ci - перистые, Cs - перисто-слоистые, Cc - перисто-кучевые, Ac - высококучевые, As - высокослоистые, Sc - слоисто-кучевые, Ns - слоисто-дождевые, Cu - кучевые, Cb - кучево-дождевые. Подробнее классификацию облаков см. в Атласе облаков (PDF).
  • T - Температура воздуха - температура, измеренная на высоте 2 м над землей.
  • Td - Температура точки росы - температура, при понижении до которой содержащийся в воздухе водяной пар достигнет насыщения.
  • f - Относительная влажность воздуха - влажноcть воздуха, измеренная на высоте 2 м над землей.
  • Te - Эффективная температура - температура, которую ощущает одетый по сезону человек в тени. Характеристика душности погоды. При расчете учитывается влияние влажности воздуха и скорости ветра на теплоощущения человека.
  • Tes - Эффективная температура на солнце - температура, которую ощущает человек, с поправкой на солнечный нагрев. Характеристика знойности погоды. Зависит от высоты солнца над горизонтом, облачности и скорости ветра. Ночью, в пасмурную погоду, а также при ветре 12 м/с и более поправка равна нулю.
  • P - Атмосферное давление - приведенное к уровню моря атмосферное давление.
  • Po - Атмосферное давление - измеренное на уровне метеостанции атмосферное давление.
  • Tmin - Минимальная температура - минимум температуры воздуха на высоте 2 м над землей.
  • Tmax - Максимальная температура - максимум температуры воздуха на высоте 2 м над землей.
  • R - Количество осадков - Количество выпавших осадков за период времени, мм. При наведении курсора мыши на число - период времени, за который выпало указанное количество осадков.
  • R24 - Количество осадков - Количество выпавших осадков за 24 часа, мм.
  • S - Снежный покров - Высота снежного покрова, см. При наведении курсора мыши на число - состояние снежного покрова и степень покрытия местности в баллах.